Погода в Константиновске

Поиск расширенной информации на нашем сайте:

Полезная информация:

Новости сайта



02.01.2020
Опубликован Долгосрочный прогноз погоды по городам России и ближнего зарубежья на январь 2020 года.
Карты: Прогноз на январь и февраль 2020 года, Сравнение прогнозируемой аномалии приземной температуры воздуха на январь 2020 года по разным моделям.




Погода в Константиновске - сегодня

Время (UTC), дата Ветер
(°,м/с) 
Видим.   Явления Облачность Т
(°С)
Тd
(°С)
f(%) Тe
(°С)
Pmin
(гПа)
dP
(гПа)
Po
(мм)
O2
(г/м3)
Тmin Tmax R s Состояние
почвы
12 18.10.20 240 (ЮЗ) 10 км    8/8 600 м 
[Cu Sc]
+22.9 +12.7 53 +28  1012.9  754  278           
15 18.10.20 320 (СЗ) 10 км    8/0 верхняя 
[Ci sp]
+24.1 +4.1 27 +24  1007.6  -0.8  750  277    +27.5       
18 18.10.20 270 (З) 10 км    ясно 
+15.8 +10.8 72 +19  1014.7  0.9  755  286           
21 18.10.20 020 (С) 10 км    4/4 600 м 
[Cu Sc]
+14.1 +9.5 74 +15  1015.8  1.1  756  288           
00 19.10.20 010 (С) 10 км    8/8 600 м 
[Cu Sc]
+14.3 +5.4 55 +14  1016.5  0.7  757  289           
03 19.10.20 010 (С) 10 км    10/10 600 м 
[Cu Sc]
+13.4 +5.8 60 +14  1017.8  1.2  758  290  +13.4        сухая 
06 19.10.20 020 (С) 10 км    10/10 600 м 
[Cu Sc]
+13.2 +5.7 60 +14  1019  1.2  759  291  +12.4         
09 19.10.20 050 (СВ) 10 км    4/4 600 м 
[Cu Sc]
+16.9 +3.9 42 +18  1018.3  -0.6  758  287           
12 19.10.20 040 (СВ) 10 км    8/6 600 м средняя 
[Cu Sc|Ac trans]
+17.5 +3.4 39 +18  1016.9  -1.4  757  286           
15 19.10.20 010 (С) 10 км  слаб. ливневой дождь  10/10 600 м кучево-дожд. 
[Cb cap]
+12 +8.3 78 +13  1017.6  0.6  758  291    +17.9  0.3     
18 19.10.20 тихо ()   4000 м  слаб. ливневой дождь  10/10 600 м кучево-дожд. 
[Cb cap]
+10 +8.6 91 +10  1019.7  2.1  759  294           
21 19.10.20 тихо ()   4000 м  слаб. ливневой дождь  10/10 600 м кучево-дожд. 
[Cb cap]
+9.7 +8.5 92 +10  1020.9  1.2  760  294           
00 20.10.20 220 (ЮЗ) 4000 м  дымка{ливн. осадки}  10/10 600 м кучево-дожд. 
[Cb calv]
+9.8 +8.4 91 +10  1022.2  1.3  761  295         
03 20.10.20 220 (ЮЗ) 4000 м  дымка  6/6 600 м 
[Cu Sc]
+9.8 +8.4 91 +10  1023.2  762  295  +9.6       
06 20.10.20 290 (З) 10 км    ясно 
+8.2 +4.4 77 +8  1024.6  1.3  763  298           
09 20.10.20 270 (З) 10 км    8/8 600 м 
[Cu med, cong]
+11.2 +4.1 62 +10  1024.7  0.1  763  295           
12 20.10.20 270 (З) 10 км    3/3 600 м 
[Cu hum]
+13.2 -1.2 37 +13  1023.8  -0.8  762  293           
15 20.10.20 тихо ()   10 км    ясно 
+7.4 +1.4 66 +7  1024.1  0.2  762  299    +14.1  0.3     
18 20.10.20 тихо ()   10 км    ясно 
+4.4 +0.6 76 +4  1025.1  0.8  763  302           
21 20.10.20 300 (СЗ) 10 км    ясно 
+4.6 +0.7 76 +5  1026  0.9  764  303           
00 21.10.20 330 (СЗ) 10 км    ясно 
+3 -0.1 80 +4  1026.9  0.9  764  305           
03 21.10.20 тихо ()   10 км    ясно 
+0.5 -1 90 +1  1028.2  1.2  765  308  +0.1        замёрзшая 
06 21.10.20 310 (СЗ) 10 км    ясно 
+6 +0.7 69 +7  1029.5  1.5  766  302  -0.2         
09 21.10.20 260 (З) 10 км    ясно 
+11.6 -0.4 43 +11  1028.9  -0.5  766  296           
12 21.10.20 260 (З) 10 км    6/0 верхняя 
[Ci sp]
+12.1 -1.1 40 +12  1027.8  -1.1  765  295           
Время (UTC), дата Ветер
(°,м/с) 
Видим.   Явления Облачность Т
(°С)
Тd
(°С)
f(%) Тe
(°С)
Pmin
(гПа)
dP
(гПа)
Po
(мм)
O2
(г/м3)
Тmin Tmax R s Состояние
почвы

Для получения пояснительной информации подведите курсор к названию столбца.

ПОГОДА в Константиновске - архив

Всё, что Вы хотите узнать о погоде в Константиновске - удобно и подробно!

Выберите нужную дату (начиная с 1 января 2019* года) и нажмите кнопку "Найти".
Будут отображены архивные сводки погоды по пункту Константиновск, начиная с указанной даты.


Отображать данные в формате CSV (для использования в таблицах Excel)


Внимание! Наш архив погоды предназначен исключительно для личного некоммерческого использования в познавательных целях. Если Вам необходимы официальные справки о состоянии погоды (для производственных, юридических, коммерческих и т.п. целей), обращайтесь в органы Росгидромета.

*Примечание: данная дата относится к архиву по метеостанциям СССР (Россия, СНГ, Балтия).
Архив по метеостанциям Зарубежной Европы и Азии (кроме Китая) хранится 10 дней, по другим регионам земного шара (Китай, Африка, Америка, Австралия, Океания) - 1 день.

Константиновск - район местоположения метеостанции


Название, широта, долгота, высота метеостанции:
Константиновск 47.6°ш. 41.1°д. 66 м над ур. моря [Российская Федерация]

Дополнительная информация

В oтличие oт бoльшинства пoгoдных сайтoв мы публикуем пoдрoбную метеoинфoрмацию в детальнoм прoфессиoнальнoм фoрмате.

Характеристики температуры и влажнoсти вoздуха измеряются на высoте 2 м в тени вдали oт зданий и деревьев.
Скoрoсть ветра измеряется на высoте 10 м (на урoвне рoста челoвека скoрoсть ветра ниже в 1.5-2 раза). Если метеoстанция нахoдится в гoрoде или в лесу, тo скoрoсть ветра занижена на 2-4 м/с пo сравнению с oткрытым местoм. Скoрoсть ветра над акватoриями крупных рек и oзёр, а также на вершинах хoлмoв на 2-5 м/с выше, чем в oбычных услoвиях.
Атмoсфернoе давление в разных тoчках местнoсти мoжет значительнo oтличаться oт давления на метеoстанции, в зависимoсти oт услoвий рельефа (при пoдъёме на 10 м давление пoнижается примернo на 1 мм рт.ст.).